Content
SEND FEEDBACK

Daily
Averages
Monthly
Summary
Canada

LA POCATIERE, QUEBEC


Home > North America > Canada > Quebec
Elevation: 100 feet     Latitude: 47 21N     Longitude: 70 02W

WEATHER
 
SELECT A DAY
Number of Records: 135,195;   Date Range: 2/29/96 - 9/15/14
 
SHARE

PRINT THIS DATA

[ ← Previous Day ]
WEATHER ALMANAC - FEBRUARY 13, 2013
[ Next Day → ]
[ °C ]   °F
Weather ElementAverageHighLow
Temperature27.9 °F31 °F (1:00 am)23.2 °F (10:00 pm)
Dewpoint21.8 °F29.1 °F (1:00 am)18.1 °F (10:00 pm)
Humidity76.9 %94 % (1:00 am)60 % (1:00 pm)
Barometer29.70 in29.75 in (10:00 pm)29.63 in (1:00 am)
Wind Speed11.6 mph17.3 mph (10:00 am)
Wind Gust19.6 mph (6:00 am)
Weather ElementAverage
Wind DirectionSW (228.4 °)

Weather ElementTotal
Precipitation---
Heating Degree Days37.9 (Base 65)
Averaged from 25 records on February 13, 2013
WEATHER CONDITIONS BREAKOUT
WIND DIRECTION BREAKOUT
WEATHER BY HOUR - FEBRUARY 13, 2013
[ °C ]   °F
Local TimeTemperatureDewpointHumidityBarometerVisibilityWind DirectionWind SpeedGust SpeedPrecipitationEventsConditions
1:00 AM31.0 °F29.0 °F90 %29.63 inSW (230°)8.1 mph
1:00 AM30.7 °F29.1 °F94 %29.63 inSW (230°)8.1 mph
2:00 AM30.6 °F28.8 °F93 %29.64 inSW (230°)11.5 mph
3:00 AM29.5 °F27.5 °F92 %29.64 inSW (230°)11.5 mph
5:00 AM28.2 °F24.6 °F86 %29.68 inWNW (290°)5.8 mph
6:00 AM27.5 °F23.4 °F84 %29.69 inSW (230°)13.8 mph19.6 mph
7:00 AM27.0 °F23.0 °F77 %29.70 inSW (220°)12.7 mph
8:00 AM26.4 °F21.4 °F81 %29.72 inSW (220°)13.8 mph
9:00 AM27.0 °F21.4 °F79 %29.72 inSW (220°)12.7 mph
10:00 AM27.1 °F21.0 °F78 %29.73 inSW (230°)17.3 mph
11:00 AM28.0 °F20.5 °F73 %29.74 inSW (220°)15.0 mph
12:00 PM28.4 °F20.7 °F73 %29.72 inSW (220°)12.7 mph
1:00 PM28.6 °F20.5 °F72 %29.71 inSW (230°)15.0 mph
1:00 PM29.0 °F20.0 °F60 %29.71 inSW (230°)15.0 mph
2:00 PM28.9 °F20.3 °F70 %29.70 inSW (220°)16.1 mph
3:00 PM29.8 °F20.7 °F69 %29.70 inSW (230°)13.8 mph
4:00 PM29.5 °F20.8 °F70 %29.71 inSW (230°)12.7 mph
5:00 PM29.1 °F20.3 °F70 %29.71 inSW (220°)9.2 mph
6:00 PM29.1 °F20.1 °F69 %29.72 inSW (220°)8.1 mph
7:00 PM26.8 °F18.7 °F72 %29.72 inSW (220°)10.4 mph
7:00 PM27.0 °F19.0 °F60 %29.72 inSW (220°)10.4 mph
8:00 PM26.2 °F18.5 °F73 %29.72 inSW (220°)11.5 mph
9:00 PM24.3 °F18.3 °F78 %29.74 inSW (230°)11.5 mph
10:00 PM23.2 °F18.1 °F81 %29.75 inSW (230°)8.1 mph
11:00 PM25.5 °F19.9 °F79 %29.75 inWSW (240°)5.8 mph
Hourly data recorded from CWST, located miles away from La Pocatiere, Quebec







STORIES FROM OUR PARTNERS